This is the latest recevied weather packets stored in our database for station/object KC1OEK-13. If no packets are shown the sender has not sent any weather packets the latest 10 day(s).
| Time | Temp. | Humidity | Pressure | Rain* | Wind** | Luminosity | Snow |
|---|---|---|---|---|---|---|---|
| 1778107315 | 15° C | 99% | 1008.2 hPa | 0 mm | - | 17 W/m² | - |
| 1778107011 | 15° C | 99% | 1008.1 hPa | 0 mm | - | 13 W/m² | - |
| 1778106707 | 15° C | 99% | 1008.2 hPa | 0 mm | - | 19 W/m² | - |
| 1778106404 | 15° C | 99% | 1008 hPa | 0 mm | - | 19 W/m² | - |
| 1778106100 | 15° C | 99% | 1008.2 hPa | 0 mm | - | 20 W/m² | - |
| 1778105798 | 15° C | 99% | 1008.3 hPa | 0 mm | - | 19 W/m² | - |
| 1778105496 | 15° C | 99% | 1008.2 hPa | 0 mm | - | 19 W/m² | - |
| 1778105192 | 15° C | 99% | 1008.1 hPa | 0 mm | - | 23 W/m² | - |
| 1778104887 | 15° C | 99% | 1008.1 hPa | 0 mm | - | 40 W/m² | - |
| 1778104584 | 15° C | 99% | 1008.2 hPa | 0 mm | - | 40 W/m² | - |
| 1778104279 | 15° C | 99% | 1008.1 hPa | 0 mm | - | 38 W/m² | - |
| 1778103977 | 15° C | 99% | 1008.4 hPa | 0 mm | - | 34 W/m² | - |
| 1778103674 | 15° C | 99% | 1008.1 hPa | 0 mm | - | 27 W/m² | - |
| 1778103372 | 15° C | 99% | 1008.2 hPa | 1.78 mm | - | 31 W/m² | - |
| 1778103069 | 15° C | 99% | 1008.2 hPa | 1.78 mm | - | 28 W/m² | - |
| 1778102766 | 15° C | 99% | 1008.2 hPa | 0 mm | - | 38 W/m² | - |
| 1778102461 | 15° C | 99% | 1008.1 hPa | 1.78 mm | - | 40 W/m² | - |
| 1778102157 | 15° C | 99% | 1008 hPa | 1.78 mm | - | 30 W/m² | - |
| 1778101854 | 15° C | 99% | 1007.9 hPa | 0 mm | - | 44 W/m² | - |
| 1778101551 | 15° C | 99% | 1008 hPa | 1.27 mm | - | 45 W/m² | - |
| 1778101247 | 15° C | 99% | 1008.1 hPa | 0 mm | - | 40 W/m² | - |
| 1778100944 | 15° C | 99% | 1008.2 hPa | 0 mm | - | 51 W/m² | - |
| 1778100639 | 15° C | 99% | 1008.2 hPa | 0 mm | - | 98 W/m² | - |
| 1778100338 | 15° C | 99% | 1008.4 hPa | 1.78 mm | - | 71 W/m² | - |
| 1778100034 | 15° C | 99% | 1008.3 hPa | 1.78 mm | - | 45 W/m² | - |
* Rain latest hour (hover to see other rain measurements)
** Current wind speed in m/s (hover to see current wind gust speed)